BREEZE-KM R/B, 43754

Orbit data source: Space-Track

BREEZE-KM R/B, 43754 is space debris in LEO originally from a launch on Fri, 30 Nov 2018 UTC launched from the Plesetsk Missile And Space Complex (PKMTR). Debris objects in space refer to the collection of defunct objects orbiting the Earth. Examples of debris include non-operational satellites, rocket bodies, and fragments generated from explosions, collisions, or faulty payload assembly.

Loading next visibility...
Identifier
43754, 2018-097D
Orbit
LEO
Country
Flag of CISCIS
Related business
Manufacturer
Khrunichev
Mission
Spacecraft
Bus & Motor
BRIZ, S5.92
Mass
2,370 kg wet, 2,370 kg dry
Launch date (UTC)
2018-11-30 (7 years ago)
Launch vehicle
Unknown
Launch site
Plesetsk Missile And Space Complex (PKMTR)
Object type
Payload
Rocket body
Debris
Shape & HBR
Hex Cyl + 1 Rod, 2.0 m
Radar Cross Section
10.190 m², Large (>1 m²)

Expand to show TLE details & history
Last TLE update: 14 hours ago

TLE from 14 hours ago
0 BREEZE-KM R/B
1 43754U 18097D   25258.57037161  .00000021  00000-0  43756-4 0  9992
2 43754  82.5095 281.6780 0221342 227.7071 130.5083 12.80110047317281
Epoch: 2025-09-15T13:41Z
TLE epoch observation values (Epoch: 2025-09-15T13:41:20.107Z)
Latitude
-0.00003°
Longitude
81.57109°
Altitude
1,456.922 km
Speed
7.081 km/s
True Right ascension
18h 46m 42s
True Declination
0° 00' 00"
Sunlit
Object was in daylight at epoch
Visualization orbit readout
Latitude
Unknown
Longitude
Unknown
Altitude
Unknown
Speed
Unknown
Apparent Right ascension
Unknown
Apparent Declination
Unknown
Sunlit
N/A
Visualization observer readout
Local Sidereal Time
20:19:46
Azimuth
Unknown
Elevation
Unknown
Doppler factor
Unknown
Orbital elements
Apogee altitude
1,509.121 km
Perigee altitude
1,167.526 km
Semi-major axis
7,716.461 km
Eccentricity
0.02213
Inclination
82.5095°
RAAN
281.678°
Arg. of periapsis
227.7071°
True anomaly
132.40234°
Mean anomaly
130.5083°
Eccentric anomaly
131.45873°
Mean motion
3.20196 °/min
Orbital period
112.43 mins
BSTAR
0.000043756
Loading maneuver chart data...
Computing Atmospheric mass density...
Loading historical data...
Loading historical data...
Loading historical data...
Loading historical data...
Loading historical data...
Loading historical data...
Loading historical data...
Other satellites on launch #97 in the year 2018 (2018-11-30 UTC)

Documentation

Showing up to 5 results
|